Location: Carrières
(48.9495°N, 2.0407°E)
Time: 11:06:02
(UTC+00:00)

Transit 2A Rocket - Pass Details

Date: 22 April 2024
Orbit: 584 x 909 km, 66.7° (Epoch: 25 May)

Event Time Altitude Azimuth Distance (km) Brightness Sun altitude
Rises 15:18:27 0° 309° (NW) 3,103 8.5 33.9°
Reaches altitude 10° 15:22:46 10° 345° (NNW) 2,277 7.5 33.2°
Maximum altitude 15:24:14 11° 2° (N) 2,233 7.3 33.0°
Drops below altitude 10° 15:25:45 10° 18° (NNE) 2,340 7.3 32.8°
Sets 15:30:25 0° 53° (NE) 3,365 7.8 32.1°
